Lake Louise, Alberta

8:40 PM MDT on May 23, 2018 (GMT -0600)
Lake Louise

Weather History for 71786 - September, 2012

Change the Weather History Date:

Sunday, September 30, 2012

  Actual Average Record
Temperature  
Mean Temperature 48 °F -  
Max Temperature 55 °F - - ()
Min Temperature 40 °F - - ()
Degree Days  
Heating Degree Days 18    
Moisture  
Dew Point 37 °F    
Average Humidity 69    
Maximum Humidity 89    
Minimum Humidity 42    
Precipitation  
Precipitation 0.00 in - - ()
Sea Level Pressure  
Sea Level Pressure 30.29 in    
Wind  
Wind Speed 7 mph ()    
Max Wind Speed 15 mph    
Max Gust Speed -    
T = Trace of Precipitation, MM = Missing Value Source: Averaged Metar Reports

Daily Weather History Graph

Daily Weather History Graph

Search for Another Location

Airport or City:

Astronomy

Sep. 30, 2012 Rise Set
Actual Time 7:45 AM MDT 7:23 PM MDT
Civil Twilight 7:12 AM MDT 7:57 PM MDT
Nautical Twilight 6:33 AM MDT 8:35 PM MDT
Astronomical Twilight 5:53 AM MDT 9:15 PM MDT
Moon 7:16 PM MDT (9/30) 8:31 AM MDT (9/30)
Length of Visible Light 12h 44m
Length of Day
11h 38m
Full, 100% of the Moon is Illuminated
Sep 30
Full
Oct 8
Last Quarter
Oct 15
New
Oct 21
First Quarter
Oct 29
Full

Hourly Weather History & Observations

Time (MDT) Temp. Windchill Dew Point Humidity Pressure Visibility Wind Dir Wind Speed Gust Speed Precip Events Conditions
12:00 AM 44 °F - 41 °F 84% 30.17 in - West 6.9 mph - -  
12:00 AM 43.9 °F 39.9 °F 40.8 °F 89% 30.17 in - West 6.9 mph - N/A   Unknown
1:00 AM 44.2 °F 42.7 °F 40.1 °F 85% 30.18 in - West 3.5 mph - N/A   Unknown
2:00 AM 43.9 °F 39.9 °F 39.4 °F 84% 30.19 in - West 6.9 mph - N/A   Unknown
3:00 AM 43.5 °F 40.9 °F 39.9 °F 87% 30.22 in - WSW 4.6 mph - N/A   Unknown
4:00 AM 43.3 °F 40.7 °F 38.7 °F 84% 30.20 in - West 4.6 mph - N/A   Unknown
5:00 AM 40.8 °F 35.6 °F 37.0 °F 86% 30.22 in - WSW 8.1 mph - N/A   Unknown
6:00 AM 42 °F - 37 °F 77% 30.24 in - West 5.8 mph - -  
6:00 AM 41.7 °F 38.0 °F 37.2 °F 84% 30.24 in - West 5.8 mph - N/A   Unknown
7:00 AM 41.7 °F 37.3 °F 37.9 °F 86% 30.26 in - WSW 6.9 mph - N/A   Unknown
8:00 AM 41.9 °F 40.0 °F 37.8 °F 85% 30.30 in - WNW 3.5 mph - N/A   Unknown
9:00 AM 42.4 °F 37.0 °F 38.3 °F 85% 30.32 in - WSW 9.2 mph - N/A   Unknown
10:00 AM 46.6 °F - 39.2 °F 75% 30.32 in - WSW 9.2 mph - N/A   Unknown
11:00 AM 48.9 °F - 36.3 °F 62% 30.33 in - WSW 12.7 mph - N/A   Unknown
12:00 PM 53 °F - 37 °F 42% 30.32 in - WSW 11.5 mph - -  
12:00 PM 53.1 °F - 36.7 °F 54% 30.32 in - WSW 11.5 mph - N/A   Unknown
1:00 PM 53.2 °F - 31.3 °F 43% 30.32 in - WSW 15.0 mph - N/A   Unknown
2:00 PM 54.7 °F - 34.0 °F 46% 30.32 in - WSW 12.7 mph - N/A   Unknown
3:00 PM 53.4 °F - 31.5 °F 43% 30.32 in - WSW 15.0 mph - N/A   Unknown
4:00 PM 55.2 °F - 33.3 °F 43% 30.31 in - WSW 12.7 mph - N/A   Unknown
5:00 PM 53.2 °F - 33.8 °F 48% 30.34 in - West 13.8 mph - N/A   Unknown
6:00 PM 50 °F - 37 °F 50% 30.35 in - WSW 12.7 mph - -  
6:00 PM 50.0 °F - 36.9 °F 61% 30.35 in - WSW 12.7 mph - N/A   Unknown
7:00 PM 47.3 °F - 36.1 °F 65% 30.36 in - WSW 9.2 mph - N/A   Unknown
8:00 PM 45.7 °F 41.0 °F 34.7 °F 65% 30.38 in - SW 9.2 mph - N/A   Unknown
9:00 PM 44.1 °F 39.0 °F 35.8 °F 73% 30.38 in - West 9.2 mph - N/A   Unknown
11:00 PM 41.4 °F 34.7 °F 34.3 °F 76% 30.35 in - WSW 11.5 mph - N/A   Unknown